Moffett NAS, CA

8:43 AM PDT on March 30, 2017 (GMT -0700)
Moffett Federal Air Field

Weather History for KNUQ - November, 2012

Change the Weather History Date:

Saturday, November 17, 2012

  Actual Average Record
Temperature  
Mean Temperature 60 °F 56 °F  
Max Temperature 65 °F 65 °F 80 °F (1989)
Min Temperature 54 °F 47 °F 30 °F (1958)
Degree Days  
Heating Degree Days 5    
Month to date heating degree days 122  
Since 1 July heating degree days 233  
Cooling Degree Days 0    
Month to date cooling degree days 6  
Year to date cooling degree days 321  
Growing Degree Days 8 (Base 50)    
Moisture  
Dew Point 55 °F    
Average Humidity 75    
Maximum Humidity 93    
Minimum Humidity 56    
Precipitation  
Precipitation 0.31 in 0.06 in 0.58 in (1983)
Month to date precipitation 0.67 0.86  
Year to date precipitation 6.87 11.34  
Since 1 July precipitation 1.36  
Sea Level Pressure  
Sea Level Pressure 29.94 in    
Wind  
Wind Speed 7 mph (South)    
Max Wind Speed 16 mph    
Max Gust Speed 22 mph    
Visibility 9 miles    
Events Rain    
T = Trace of Precipitation, MM = Missing Value Source: NWS Daily Summary

Daily Weather History Graph

Daily Weather History Graph

Search for Another Location

Airport or City:

Trip Planner

Search our weather history database for the weather conditions in past years. The results will help you decide how hot, cold, wet, or windy it might be!

Date:

Astronomy

Nov. 17, 2012 Rise Set
Actual Time 6:50 AM PST 4:55 PM PST
Civil Twilight 6:22 AM PST 5:23 PM PST
Nautical Twilight 5:50 AM PST 5:55 PM PST
Astronomical Twilight 5:19 AM PST 6:26 PM PST
Moon 10:39 AM PST (11/17) 9:11 PM PST (11/17)
Length of Visible Light 11h 01m
Length of Day
10h 05m
Waxing Crescent, 21% of the Moon is Illuminated
Nov 17
Waxing Crescent
Nov 20
First Quarter
Nov 28
Full
Dec 6
Last Quarter
Dec 13
New

Hourly Weather History & Observations

Time (PST) Temp. Dew Point Humidity Pressure Visibility Wind Dir Wind Speed Gust Speed Precip Events Conditions
12:56 AM 60.1 °F 55.9 °F 86% 29.86 in 10.0 mi SE 5.8 mph - 0.03 in Rain Light Rain
1:56 AM 59.0 °F 57.0 °F 93% 29.86 in 10.0 mi SE 9.2 mph - 0.02 in Rain Light Rain
2:56 AM 59.0 °F 57.9 °F 96% 29.85 in 7.0 mi SE 6.9 mph - 0.00 in Rain Light Rain
3:56 AM 59.0 °F 57.0 °F 93% 29.84 in 10.0 mi SE 12.7 mph - 0.01 in   Overcast
4:56 AM 60.1 °F 55.9 °F 86% 29.84 in 10.0 mi SE 9.2 mph - 0.00 in   Overcast
5:56 AM 60.1 °F 57.0 °F 90% 29.85 in 9.0 mi SE 6.9 mph - 0.01 in Rain Light Rain
6:56 AM 60.1 °F 57.0 °F 90% 29.87 in 7.0 mi SE 10.4 mph - 0.00 in Rain Light Rain
7:56 AM 60.1 °F 57.0 °F 90% 29.89 in 10.0 mi SE 8.1 mph - 0.00 in   Overcast
8:56 AM 62.1 °F 57.0 °F 84% 29.91 in 9.0 mi SSE 6.9 mph - 0.01 in Rain Light Rain
9:53 AM 62.6 °F 57.2 °F 82% 29.92 in 9.0 mi South 6.9 mph - 0.00 in Rain Light Rain
9:56 AM 63.0 °F 57.9 °F 84% 29.93 in 9.0 mi SSE 5.8 mph - 0.00 in Rain Light Rain
10:42 AM 62.6 °F 57.2 °F 82% 29.94 in 10.0 mi WSW 6.9 mph - 0.01 in   Overcast
10:56 AM 63.0 °F 57.9 °F 84% 29.95 in 10.0 mi WNW 3.5 mph - 0.01 in   Overcast
11:13 AM 62.6 °F 59.0 °F 88% 29.94 in 10.0 mi North 6.9 mph - N/A   Overcast
11:54 AM 64.4 °F 55.4 °F 73% 29.94 in 10.0 mi West 10.4 mph - N/A   Overcast
11:56 AM 64.0 °F 55.9 °F 75% 29.95 in 10.0 mi West 8.1 mph - N/A   Overcast
12:56 PM 63.0 °F 55.0 °F 75% 29.94 in 10.0 mi NNW 4.6 mph - N/A   Overcast
1:05 PM 62.6 °F 55.4 °F 77% 29.94 in 10.0 mi Variable 3.5 mph - N/A   Overcast
1:56 PM 62.1 °F 53.1 °F 72% 29.95 in 10.0 mi West 10.4 mph - N/A   Overcast
2:31 PM 64.4 °F 51.8 °F 64% 29.94 in 10.0 mi WSW 8.1 mph - N/A   Overcast
2:56 PM 64.9 °F 51.1 °F 61% 29.95 in 10.0 mi West 8.1 mph 17.3 mph N/A   Overcast
3:56 PM 64.0 °F 48.0 °F 56% 29.96 in 10.0 mi Calm Calm - N/A   Clear
4:56 PM 62.1 °F 48.0 °F 60% 29.96 in 10.0 mi SE 3.5 mph - N/A   Clear
5:56 PM 60.1 °F 50.0 °F 69% 29.96 in 10.0 mi Variable 4.6 mph - N/A   Scattered Clouds
6:56 PM 60.1 °F 52.0 °F 75% 29.98 in 10.0 mi SSE 5.8 mph - 0.00 in Rain Light Rain
7:56 PM 59.0 °F 54.0 °F 83% 29.99 in 10.0 mi SE 8.1 mph - 0.00 in Rain Light Rain
8:56 PM 59.0 °F 54.0 °F 83% 29.99 in 10.0 mi SE 6.9 mph - 0.00 in Rain Light Rain
9:56 PM 57.9 °F 55.0 °F 90% 29.99 in 6.0 mi SE 5.8 mph - 0.02 in Rain Light Rain
10:56 PM 57.9 °F 55.0 °F 90% 30.00 in 5.0 mi SE 4.6 mph - 0.04 in Rain Light Rain
11:30 PM 55.4 °F 53.6 °F 94% 30.01 in 5.0 mi NNW 11.5 mph - 0.06 in Rain Light Rain
11:39 PM 55.4 °F 53.6 °F 94% 30.02 in 3.0 mi NNW 10.4 mph - 0.08 in Rain Rain
11:50 PM 53.6 °F 53.6 °F 100% 30.02 in 2.5 mi Calm Calm - 0.12 in Rain Heavy Rain
11:56 PM 54.0 °F 53.1 °F 97% 30.04 in 2.0 mi NW 5.8 mph - 0.16 in Rain Heavy Rain